Weather in Ratno

Ukraine / Volyn Oblast     51°39′57″N   24°31′32″E
temp.,
°C
wind,
m/s
gust,
m/s
humid.,
%
clouds,
%
prec.,
mm/h
press.,
hPa
HPBL,
m
12 may, wed
wed1200:00+12se414795 0.0 1016275
03:00+11se412898 0.0 1015245
06:00+11ese411895 0.0 1015212
09:00+17ese610750 0.0 1014509
12:00+19ese896345 0.0 10131272
15:00+19ese89451 0.0 10131724
18:00+18ese68542 0.0 10121792
21:00+12se611650 0.0 1012484
13 may, thu
thu1300:00+8se39753 0.0 1012227
03:00+6ese37885 0.0 1010124
06:00+5ese389013 0.0 1008154
09:00+11se586553 0.0 1007669
12:00+15se67525 0.0 10051469
15:00+16sse7864100 0.1 10031416
18:00+13se597799 0.0 1003779
21:00+12ese5119196 1.1 1002493
14 may, fri
fri1400:00+11sse4998100 0.0 1002287
03:00+12sse51097100 0.4 1001612
06:00+12ssw5996100 0.8 1002518
09:00+12ssw4993100 1.4 1003519
12:00+14ssw5778100 0.1 1004978
15:00+16sw7967100 0.7 10051255
18:00+14wsw587498 0.1 10071116
21:00+11wsw4980100 0.1 1007446
15 may, sat
sat1500:00+10wsw4783100 0.0 1008434
03:00+10wsw41086100 0.0 1009511
06:00+7wsw410965 0.0 1010266
09:00+13w36745 0.0 1010586
12:00+17w355991 0.0 10101550
15:00+18wsw235584 0.2 10091316
18:00+18sw236164 0.6 1009925
21:00+14se117698 1.1 100910
16 may, sun
sun1600:00+10e22905 0.0 101214
03:00+9ese229181 0.0 101217
06:00+9e3392100 0.0 101247
09:00+14e4675100 0.0 1012357
12:00+18e5661100 0.0 1011876
15:00+18ese4866100 0.3 1010420
18:00+15ese2591100 2.8 1010185
21:00+14ese3792100 3.6 1009166